Location: Fort Wayne
(41.1310°N, 85.1290°W)
Time: 00:18:21
(UTC-04:00)

Meteor 2-10 Rocket - Visible Passes

Search period start: 25 July 2016 00:00
Search period end: 04 August 2016 00:00
Orbit: 735 x 884 km, 81.2° (Epoch: 23 July)

Date Brightness Start Highest point End Pass type
(mag) Time Alt. Az. Time Alt. Az. Time Alt. Az.
25 Jul 5.7 22:46:16 10° NNW 22:51:02 27° W 22:55:43 10° SW visible
26 Jul 5.2 22:21:39 10° NNW 22:26:56 37° W 22:32:05 10° SSW visible
27 Jul 4.6 21:57:12 10° NNW 22:02:48 51° W 22:08:15 10° SSW visible
28 Jul 4.1 21:32:50 10° NNW 21:38:37 72° W 21:44:13 10° S visible
29 Jul 6.5 22:53:17 10° WNW 22:55:32 12° W 22:57:46 10° WSW visible
30 Jul 6.3 22:27:52 10° NW 22:31:33 18° W 22:35:10 10° SW visible
31 Jul 6.0 22:02:58 10° NW 22:07:30 25° W 22:11:55 10° SW visible
01 Aug 5.5 21:38:19 10° NNW 21:43:25 34° W 21:48:21 10° SSW visible
